User: anonymous   Login
Location: Unspecified
(0.0000°N, 0.0000°E)
Time: 06:31:59
(UTC+00:00)
Language:

Saudisat 1A - Orbit

View from above orbital plane
View from above orbital plane
View from above satellite
View from above satellite

Ground track
Ground track

The orbit data is extracted from the following two-line orbital elements,

1 26546U 00057B   18324.55631158  .00000047  00000-0  20908-4 0  9991
2 26546  64.5529 143.0937 0029378 314.0331  45.8358 14.90800041984378
Epoch (UTC): 20 November 2018 13:21:05
Eccentricity: 0.0029378
inclination: 64.5529°
perigee height: 575 km
apogee height: 616 km
right ascension of ascending node: 143.0937°
argument of perigee: 314.0331°
revolutions per day: 14.90800041
mean anomaly at epoch: 45.8358°
orbit number at epoch: 98437

The dashed part of the orbit path shows where the satellite is in the earth's shadow,  

DLR